STARLINK-4181, 52882

Orbit data source: Space-Track

STARLINK-4181, 52882 is a payload satellite owned by SpaceX/Seattle (US) in LEO that was launched on Fri, 17 Jun 2022 UTC via an FALCON 9 launch vehicle from the Air Force Eastern Test Range (AFETR). Payload-class satellites include a variety of spacecraft equipped with specific instruments for various scientific and technological missions. These include communications satellites like Starlink; space stations such as the ISS; scientific satellites like the Hubble; Earth observation satellites from companies like Planet Labs, Umbra, and HawkEye 360; GPS; miniature CubeSats for education and research; and military/defense satellites.

Loading next visibility...
Identifier
52882, 2022-062BE
Orbit
LEO
Country
Flag of USUS
Related business
Manufacturer
SpaceX/Seattle
Mission
Operational Commercial Communications
Bus & Motor
STARLINK, Unknown motor
Mass
297 kg wet, ~275 kg dry
Launch date (UTC)
2022-06-17 (3 years ago)
Launch vehicle
FALCON 9
Launch site
Air Force Eastern Test Range (AFETR)
Object type
Payload
Rocket body
Debris
Shape & HBR
Box + 1 Pan, 10.1 m
Radar Cross Section
13.562 m², Large (>1 m²)

Expand to show TLE details & history
Last TLE update: 1 day ago

TLE from 1 day ago
0 STARLINK-4181
1 52882U 22062BE  25348.55246606 -.00000702  00000-0 -26044-4 0  9994
2 52882  53.2184  35.8923 0001464  93.7485 266.3674 15.08826746193229
Epoch: 2025-12-14T13:15Z
TLE epoch observation values (Epoch: 2025-12-14T13:15:33.067Z)
Latitude
-0.00008°
Longitude
113.54072°
Altitude
540.746 km
Speed
7.593 km/s
True Right ascension
02h 23m 34s
True Declination
0° 00' 00"
Sunlit
Object was in full shadow at epoch
Visualization orbit readout
Latitude
Unknown
Longitude
Unknown
Altitude
Unknown
Speed
Unknown
Apparent Right ascension
Unknown
Apparent Declination
Unknown
Sunlit
N/A
Visualization observer readout
Local Sidereal Time
13:19:53
Azimuth
Unknown
Elevation
Unknown
Doppler factor
Unknown
Orbital elements
Apogee altitude
541.041 km
Perigee altitude
539.016 km
Semi-major axis
6,918.166 km
Eccentricity
0.00015
Inclination
53.2184°
RAAN
35.8923°
Arg. of periapsis
93.7485°
True anomaly
266.35066°
Mean anomaly
266.3674°
Eccentric anomaly
266.35903°
Mean motion
3.77187 °/min
Orbital period
95.44 mins
BSTAR
-0.000026044
Loading maneuver chart data...
Computing Atmospheric mass density...
Loading historical data...
Loading historical data...
Loading historical data...
Loading historical data...
Loading historical data...
Loading historical data...
Loading historical data...

Documentation

Showing up to 5 results
|